TimeAKDT,TemperatureF,Dew PointF,Humidity,Sea Level PressureIn,VisibilityMPH,Wind Direction,Wind SpeedMPH,Gust SpeedMPH,PrecipitationIn,Events,Conditions,WindDirDegrees,DateUTC
12:53 AM,43.0,26.1,51,29.73,10.0,NNW,4.6,-,N/A,,Overcast,330,2013-05-16 08:53:00
1:53 AM,42.1,26.1,53,29.72,10.0,North,4.6,-,N/A,,Overcast,360,2013-05-16 09:53:00
2:53 AM,42.1,26.1,53,29.70,10.0,NNW,5.8,-,N/A,,Overcast,330,2013-05-16 10:53:00
3:53 AM,41.0,28.0,60,29.70,10.0,West,4.6,-,N/A,,Overcast,280,2013-05-16 11:53:00
4:53 AM,41.0,28.0,60,29.69,10.0,NW,5.8,-,N/A,,Overcast,310,2013-05-16 12:53:00
5:53 AM,39.9,32.0,73,29.68,10.0,WNW,8.1,-,0.00,Rain,Light Rain,290,2013-05-16 13:53:00
6:53 AM,39.0,33.1,79,29.67,10.0,WNW,6.9,-,0.00,Rain,Light Rain,300,2013-05-16 14:53:00
7:29 AM,37.4,33.8,87,29.66,10.0,NW,5.8,-,0.00,Rain,Light Rain,320,2013-05-16 15:29:00
7:53 AM,37.9,33.1,83,29.65,10.0,NNW,5.8,-,0.00,Rain,Light Rain,340,2013-05-16 15:53:00
8:53 AM,37.9,35.1,89,29.64,10.0,NNW,6.9,-,0.01,Rain,Light Rain,340,2013-05-16 16:53:00
9:09 AM,37.4,35.6,93,29.63,10.0,North,5.8,-,0.00,Rain,Light Rain,350,2013-05-16 17:09:00
9:17 AM,37.4,35.6,93,29.62,10.0,NNW,9.2,-,0.00,Rain,Light Rain,340,2013-05-16 17:17:00
9:53 AM,39.0,35.1,86,29.62,10.0,NNW,5.8,-,0.00,Rain,Light Rain,330,2013-05-16 17:53:00
10:53 AM,39.0,36.0,89,29.60,10.0,NW,4.6,-,0.00,,Overcast,320,2013-05-16 18:53:00
11:53 AM,39.0,36.0,89,29.60,10.0,NNW,4.6,-,N/A,,Overcast,330,2013-05-16 19:53:00
12:12 PM,39.2,35.6,87,29.58,10.0,NNW,4.6,-,N/A,,Overcast,340,2013-05-16 20:12:00
12:53 PM,39.9,37.0,89,29.59,10.0,NNW,5.8,-,N/A,,Overcast,340,2013-05-16 20:53:00
1:53 PM,41.0,37.0,86,29.58,10.0,Variable,4.6,-,N/A,,Overcast,0,2013-05-16 21:53:00
2:53 PM,42.1,36.0,79,29.56,10.0,North,5.8,-,N/A,,Overcast,10,2013-05-16 22:53:00
3:53 PM,42.1,37.0,82,29.55,10.0,NNW,4.6,-,N/A,,Mostly Cloudy,340,2013-05-16 23:53:00
4:53 PM,42.1,37.9,85,29.54,10.0,NNW,5.8,-,N/A,,Mostly Cloudy,340,2013-05-17 00:53:00
5:53 PM,42.1,39.0,89,29.52,10.0,NNW,6.9,-,N/A,,Mostly Cloudy,330,2013-05-17 01:53:00
6:00 PM,42.8,39.2,87,29.51,10.0,NNW,6.9,-,N/A,,Overcast,340,2013-05-17 02:00:00
6:53 PM,41.0,39.0,93,29.51,10.0,NNW,5.8,-,0.00,Rain,Light Rain,340,2013-05-17 02:53:00
7:53 PM,41.0,39.0,93,29.49,10.0,North,6.9,-,0.00,,Overcast,350,2013-05-17 03:53:00
8:53 PM,41.0,39.9,96,29.48,10.0,North,4.6,-,0.01,Rain,Light Rain,10,2013-05-17 04:53:00
9:53 PM,39.9,39.0,97,29.47,10.0,NNW,8.1,-,0.02,Rain,Light Rain,330,2013-05-17 05:53:00
10:53 PM,39.9,39.0,97,29.47,10.0,NW,4.6,-,0.00,Rain,Light Rain,320,2013-05-17 06:53:00
10:56 PM,39.2,39.2,100,29.46,10.0,NW,4.6,-,0.00,Rain,Light Rain,310,2013-05-17 06:56:00
11:53 PM,39.0,37.9,96,29.46,10.0,NNW,4.6,-,0.01,Rain,Light Rain,330,2013-05-17 07:53:00